[[{"header":{"parameterUnit":"m.s-1","parameterCategory":1,"la1":30.2991,"la2":30.254,"lo1":-89.0895,"lo2":-89.0444,"dy":0.0017,"dx":0.0017,"nx":28,"ny":28,"refTime":"2025-07-20T09:00:00:Z","depth":0,"parameterNumber":2,"parameterNumberName":"U-component_of_WINDS"},"data":[0,0,0,0,0,0,0,0,0,0,0,0,0,0,0,0,0,0,0,0,0,0,0,0,0,0,0,0,0,0,0,0,0,0,0,0,0,0,0,0,0,0,0,0,0,0,0,0,0,0,0,0,0,0,0,0,0,0,4.4343,4.4344,0,4.4474,4.4475,4.4477,4.4383,4.4379,4.4375,4.4371,4.451,4.4517,4.4525,0,0,0,0,0,0,0,0,0,0,0,0,0,4.4015,4.4021,4.4342,4.4344,4.4346,4.4474,4.4475,4.4477,4.4384,4.4379,4.4374,4.4369,4.4508,4.4517,4.4526,0,0,0,0,0,0,0,0,0,0,0,0,0,4.4153,4.4023,4.4342,4.4315,4.4313,4.4473,4.4476,4.4478,4.4385,4.4379,4.4372,4.4367,4.4505,4.4516,4.4527,4.4723,0,0,4.4562,4.4567,0,0,0,0,0,0,0,0,4.4145,4.4165,4.4317,4.4317,4.4316,4.4406,4.4411,4.456,4.4387,4.4358,4.4371,4.4364,4.4481,4.4494,4.4532,4.4729,4.4735,4.4563,4.457,4.4575,4.4578,0,0,0,0,0,0,0,4.4136,4.4159,4.4395,4.4319,4.4319,4.4297,4.4309,4.4439,4.4453,4.436,4.4353,4.437,4.4479,4.4521,4.4535,4.4737,4.4562,4.4573,4.458,4.4584,4.5101,4.5107,0,0,0,0,0,0,4.4128,4.4151,4.439,4.4398,4.4213,4.4308,4.4322,4.4383,4.4451,4.4456,4.4375,4.4365,4.4505,4.4522,4.4539,4.4772,4.4574,4.4585,4.4592,4.5094,4.5102,4.511,0,0,0,0,0,0,4.4121,4.415,4.4385,4.4273,4.4301,4.432,4.439,4.4389,4.4431,4.4463,4.4465,4.4416,4.4501,4.4523,4.4677,4.4776,4.459,4.4601,4.5086,4.5096,4.5106,4.524,0,0,0,0,0,0,4.4112,4.4148,4.4222,4.4276,4.4308,4.452,4.4396,4.4396,4.4451,4.4439,4.4501,4.4506,4.4498,4.4661,4.4689,4.4788,4.461,4.5077,4.509,4.5103,4.5227,4.5254,4.5277,0,0,0,0,0,4.4101,4.4256,4.4226,4.4256,4.44,4.4526,4.4545,4.4531,4.4459,4.4534,4.4554,4.4504,4.4761,4.4677,4.4708,4.4812,4.5071,4.5087,4.5102,4.5216,4.5249,4.5276,0,0,0,0,0,0,4.4216,4.4262,4.423,4.4407,4.4463,4.451,4.4604,4.4566,4.4645,4.4631,4.4611,4.4626,4.4788,4.4815,4.4722,4.5005,4.4904,4.4927,4.4981,4.5012,4.5037,4.5027,4.4619,0,0,0,0,0,4.4261,4.4358,4.4394,4.4547,4.4576,4.4586,4.464,4.4624,4.4682,4.4706,4.4737,4.4797,4.489,4.4953,4.5041,4.5231,4.5243,4.5318,4.5343,4.5363,4.5382,4.5484,4.5518,4.516,4.516,4.516,0,0,4.4357,4.4394,4.4457,4.4571,4.4612,4.4714,4.4606,4.4719,4.4794,4.4723,4.487,4.4896,4.496,4.5133,4.521,4.5161,4.5484,4.5383,4.5398,4.5407,4.5504,4.5537,4.5567,4.5171,4.5169,4.5167,0,0,4.4583,4.4621,4.4752,4.4795,4.4859,4.4864,4.4895,4.4948,4.4962,4.5108,4.5057,4.5147,4.5309,4.5357,4.5403,4.5647,4.5604,4.5676,4.5806,4.5906,4.5934,4.5959,4.6045,4.6077,4.5696,4.5696,4.5696,0,4.4694,4.4844,4.4824,4.494,4.4992,4.4931,4.5063,4.5107,4.5197,4.5235,4.5178,4.5379,4.5419,4.5601,4.566,4.57,4.5735,4.5669,4.5931,4.5956,4.5979,4.6061,4.6094,4.5705,4.5704,4.5703,4.5702,0,4.4978,4.5083,4.5181,4.5267,4.533,4.5454,4.5454,4.552,4.5499,4.551,4.566,4.5705,4.5801,4.5843,4.5825,4.6024,4.5991,4.5933,4.5831,4.6022,4.6099,4.613,4.5716,4.5713,4.5711,4.5709,0,0,4.5281,4.5353,4.539,4.5428,4.5493,4.5574,4.5696,4.5788,4.5845,4.5909,4.6011,4.6149,4.6095,4.6147,4.6134,4.6221,4.641,4.6152,4.6154,4.6199,4.6632,4.6675,4.6711,4.6382,4.6388,4.6393,4.6626,0,4.551,4.5719,4.5705,4.5903,4.5999,4.5942,4.6048,4.61,4.6114,4.6199,4.6214,4.6312,4.6234,4.6265,4.6349,4.637,4.6497,4.6353,4.6477,4.6482,4.6462,4.6752,4.6797,4.7016,4.6656,4.6661,4.6665,0,4.5805,4.5877,4.6085,4.6134,4.6174,4.627,4.6352,4.6434,4.6492,4.6496,4.6554,4.6525,4.6648,4.6543,4.6713,4.6615,4.6665,4.6683,4.6691,4.6702,4.6585,4.677,4.7085,4.7118,4.6712,4.6709,4.6705,0,4.6005,4.6154,4.6297,4.6332,4.6393,4.6461,4.6491,4.6542,4.6598,4.6671,4.6707,4.6795,4.6842,4.6911,4.6907,4.6831,4.7079,4.6974,4.7086,4.7087,4.7141,4.7138,4.7468,4.7174,4.7174,4.7173,4.7172,0,4.6262,4.6391,4.6387,4.6475,4.6618,4.66,4.6743,4.6765,4.6811,4.6903,4.6859,4.6947,4.6936,4.7024,4.7022,4.7163,4.7185,4.7192,4.719,4.7196,4.7195,4.7228,4.7213,4.7182,4.718,4.7178,4.7177,0,4.6509,4.6512,4.6664,4.6709,4.6724,4.6827,4.6866,4.695,4.6959,4.7076,4.7103,4.7118,4.722,4.7222,4.7339,4.7338,4.7509,4.749,4.7489,4.7486,4.7597,4.7587,4.796,4.8008,4.7684,4.7687,4.769,0,4.6673,4.6771,4.6826,4.6884,4.6916,4.701,4.7066,4.7053,4.7114,4.7186,4.7262,4.7359,4.7435,4.76,4.7623,4.7712,4.7695,4.782,4.7708,4.7711,4.7696,4.769,4.77,4.7841,4.7845,4.7848,4.785,0,4.6964,4.696,4.7042,4.7125,4.7193,4.7258,4.7318,4.7368,4.7361,4.7432,4.7534,4.7593,4.7711,4.7809,4.7895,4.7926,4.7888,4.7885,4.7916,4.7923,4.7918,4.7921,4.7548,4.7877,4.7874,4.7872,4.7871,4.787,4.7174,4.7258,4.7309,4.7402,4.7445,4.7502,4.7583,4.7601,4.7686,4.778,4.7767,4.7881,4.7936,4.8048,4.8086,4.8175,4.8132,4.8177,4.8188,4.8199,4.8211,4.7904,4.8191,4.8191,4.819,4.8189,4.8189,0,4.7462,4.7492,4.7577,4.7662,4.7735,4.769,4.7754,4.7819,4.7919,4.7973,4.8049,4.8166,4.826,4.8289,4.838,4.8446,4.8431,4.847,4.8465,4.8473,4.8245,4.8209,4.8481,4.8481,4.8481,4.8481,4.8481,4.8481,4.7621,4.7759,4.7761,4.7921,4.7951,4.806,4.8101,4.8153,4.8196,4.8328,4.8405,4.8422,4.8467,4.856,4.8644,4.8651,4.8686,4.8733,4.8732,4.8518,4.8489,4.8461,4.8427,4.8741,4.8741,4.8953,4.8955,4.8956]},{"header":{"parameterUnit":"m.s-1","parameterCategory":1,"la1":30.2991,"la2":30.254,"lo1":-89.0895,"lo2":-89.0444,"dy":0.0017,"dx":0.0017,"nx":28,"ny":28,"refTime":"2025-07-20T09:00:00:Z","depth":0,"parameterNumber":3,"parameterNumberName":"V-component_of_WINDS"},"data":[0,0,0,0,0,0,0,0,0,0,0,0,0,0,0,0,0,0,0,0,0,0,0,0,0,0,0,0,0,0,0,0,0,0,0,0,0,0,0,0,0,0,0,0,0,0,0,0,0,0,0,0,0,0,0,0,0,0,0.2239,0.2239,0,0.2245,0.2245,0.2245,0.2224,0.2223,0.2223,0.2222,0.2229,0.223,0.223,0,0,0,0,0,0,0,0,0,0,0,0,0,0.2211,0.2212,0.2239,0.2239,0.2239,0.2244,0.2245,0.2245,0.2224,0.2223,0.2223,0.2222,0.2229,0.223,0.223,0,0,0,0,0,0,0,0,0,0,0,0,0,0.2221,0.2212,0.2239,0.223,0.2229,0.2244,0.2245,0.2245,0.2224,0.2223,0.2222,0.2221,0.2228,0.2229,0.2231,0.2256,0,0,0.2234,0.2235,0,0,0,0,0,0,0,0,0.222,0.2222,0.2231,0.223,0.2229,0.2233,0.2237,0.2249,0.2224,0.2226,0.2222,0.2221,0.2231,0.2232,0.2235,0.2256,0.2257,0.2234,0.2235,0.2235,0.2236,0,0,0,0,0,0,0,0.222,0.2222,0.2241,0.2231,0.223,0.2225,0.2225,0.2239,0.2234,0.2226,0.2224,0.2225,0.223,0.2234,0.2235,0.2257,0.2234,0.2235,0.2236,0.2236,0.2299,0.23,0,0,0,0,0,0,0.222,0.2221,0.2241,0.2241,0.2222,0.2226,0.2227,0.2233,0.2233,0.2233,0.2226,0.2224,0.2232,0.2234,0.2235,0.2265,0.2235,0.2236,0.2237,0.2298,0.2299,0.23,0,0,0,0,0,0,0.222,0.2222,0.2241,0.2231,0.2233,0.2228,0.2234,0.2233,0.2237,0.2234,0.2232,0.2231,0.2232,0.2233,0.2251,0.2265,0.2237,0.2238,0.2297,0.2298,0.23,0.2324,0,0,0,0,0,0,0.2219,0.2222,0.2232,0.2231,0.2233,0.2257,0.2235,0.2234,0.2238,0.2236,0.2238,0.2237,0.2231,0.2249,0.2252,0.2266,0.2239,0.2295,0.2297,0.2299,0.2322,0.2326,0.233,0,0,0,0,0,0.2218,0.2239,0.2232,0.2235,0.2245,0.2257,0.2259,0.2251,0.224,0.2249,0.2247,0.2237,0.2263,0.2251,0.2254,0.2268,0.2295,0.2297,0.2299,0.2321,0.2326,0.233,0,0,0,0,0,0,0.2242,0.2239,0.2231,0.2253,0.2255,0.2254,0.2266,0.2257,0.2263,0.2261,0.2252,0.2252,0.2271,0.2271,0.2259,0.2293,0.2277,0.2279,0.2292,0.2297,0.2301,0.23,0.224,0,0,0,0,0,0.225,0.2259,0.2256,0.2275,0.2277,0.2271,0.2276,0.227,0.2273,0.2274,0.2273,0.2276,0.2285,0.2291,0.2299,0.2322,0.2322,0.2333,0.2337,0.234,0.2343,0.2355,0.236,0.2307,0.2307,0.2307,0,0,0.2266,0.2265,0.2272,0.228,0.2281,0.2292,0.2272,0.2284,0.2292,0.2276,0.2292,0.2291,0.2294,0.2314,0.2323,0.2315,0.2357,0.2343,0.2346,0.2347,0.2358,0.2363,0.2367,0.2309,0.2309,0.2308,0,0,0.2301,0.2301,0.2317,0.2318,0.232,0.2316,0.232,0.2319,0.2318,0.2334,0.2322,0.2331,0.2346,0.2348,0.2352,0.2386,0.2376,0.2389,0.2409,0.2421,0.2425,0.2429,0.2441,0.2445,0.2391,0.2391,0.2391,0,0.2321,0.2336,0.2326,0.2339,0.2342,0.2327,0.2343,0.2345,0.235,0.2353,0.2343,0.2361,0.2362,0.2383,0.2391,0.2394,0.2398,0.2389,0.2425,0.2429,0.2432,0.2443,0.2448,0.2393,0.2393,0.2392,0.2392,0,0.236,0.237,0.2383,0.2387,0.2392,0.2406,0.2399,0.2405,0.2398,0.2395,0.2411,0.2411,0.2419,0.2423,0.2417,0.2442,0.2437,0.2427,0.241,0.2438,0.2449,0.2453,0.2395,0.2394,0.2394,0.2394,0,0,0.2411,0.2409,0.2414,0.2415,0.2415,0.2423,0.2436,0.2443,0.2448,0.2452,0.2463,0.2475,0.2465,0.2469,0.2462,0.2473,0.2499,0.2461,0.2461,0.2468,0.2527,0.2535,0.254,0.2493,0.2494,0.2494,0.2527,0,0.2445,0.2467,0.2459,0.2481,0.2491,0.2476,0.2487,0.2489,0.2486,0.2493,0.249,0.2499,0.2485,0.2487,0.2497,0.2494,0.2511,0.2492,0.2503,0.2504,0.2503,0.2546,0.2555,0.2585,0.2531,0.2532,0.2532,0,0.2488,0.2492,0.2516,0.2514,0.2517,0.2528,0.2532,0.254,0.2541,0.2538,0.2542,0.2533,0.2546,0.2529,0.2546,0.2533,0.2537,0.2536,0.2537,0.2538,0.252,0.2548,0.2595,0.26,0.2539,0.2538,0.2538,0,0.2523,0.2534,0.255,0.2551,0.2549,0.2557,0.2556,0.2557,0.2561,0.2565,0.2568,0.2574,0.2577,0.2582,0.2575,0.2563,0.2593,0.2576,0.2591,0.2591,0.2598,0.2598,0.2647,0.2601,0.2601,0.2601,0.2601,0,0.2562,0.2577,0.2565,0.2575,0.2591,0.2581,0.2597,0.2595,0.2595,0.2604,0.2592,0.26,0.259,0.2598,0.2593,0.2608,0.2609,0.2607,0.2606,0.2608,0.2609,0.2611,0.2609,0.2602,0.2602,0.2601,0.2601,0,0.2603,0.2596,0.2612,0.2608,0.2608,0.262,0.2617,0.2625,0.2621,0.2632,0.2635,0.2628,0.2636,0.263,0.2638,0.2634,0.2654,0.265,0.2654,0.2652,0.2668,0.2667,0.272,0.2726,0.2676,0.2677,0.2677,0,0.2629,0.264,0.2637,0.2642,0.2642,0.265,0.2654,0.2644,0.2648,0.265,0.2658,0.2665,0.2671,0.2685,0.2681,0.2687,0.2682,0.2701,0.2683,0.2685,0.2683,0.2682,0.2683,0.2704,0.2705,0.2705,0.2706,0,0.2675,0.267,0.2676,0.268,0.2685,0.2688,0.2691,0.2695,0.2685,0.2691,0.2699,0.2703,0.2711,0.2718,0.2722,0.2722,0.2712,0.2711,0.2715,0.2718,0.272,0.2719,0.2663,0.271,0.271,0.2709,0.2709,0.2709,0.2709,0.2718,0.2717,0.2723,0.2724,0.2726,0.2733,0.273,0.2736,0.2741,0.2735,0.2745,0.2745,0.275,0.2751,0.2758,0.2751,0.2756,0.2758,0.2759,0.2761,0.2718,0.2759,0.2759,0.2759,0.2759,0.2759,0,0.2754,0.2752,0.2758,0.2761,0.2766,0.2756,0.2757,0.2763,0.2771,0.2772,0.2777,0.2786,0.2792,0.2789,0.2794,0.2801,0.2796,0.2803,0.2802,0.2802,0.2768,0.2764,0.2806,0.2806,0.2806,0.2806,0.2806,0.2806,0.2778,0.2792,0.2787,0.2801,0.2799,0.2808,0.281,0.2812,0.2812,0.2822,0.2828,0.2825,0.2824,0.2829,0.2835,0.2833,0.2836,0.2844,0.2841,0.2809,0.2805,0.28,0.2796,0.2844,0.2845,0.2874,0.2875,0.2875]}]]